Find Starlink 33841

NORAD ID: 63771 Int'l Des: 2025-089 Owner: SPXS Country: US Constellation: starlink operational
LEOCIRCULAR

Live-Position

3D-Globus wird geladen...

Über Starlink 33841

Beschreibung wird geladen...

Nächste Überflüge

Passes for default location (London). Set your location on the main map for personalized predictions.

Höhenverlauf

Loading altitude history...

Zweizeiliger Elementsatz

1 63771U 25089W 26127.56711260 .00010813 00000-0 40197-3 0 9991
2 63771 43.0038 72.5887 0001337 278.5316 81.5384 15.27573592 57914
Epoch: 7. Mai 2026 • Age: 18 hours

Aktueller Status

Höhe 484.2 km
Geschwindigkeit 7.63 km/s
Subsatellitenpunkt 28.68°N, 125.39°W
Startdatum 29. Apr. 2025
Alter 1 years
Typ internet

Technische Details

Klassifizierung Payload
Masse 575.00 kg
Trockenmasse 530.00 kg
Gesamtmasse 575.00 kg
Länge 0.30 m
Durchmesser 4.10 m
Spannweite 29.00 m
Form Box + pan
Hersteller SPXS
Bus-Typ Starlink V2MO
Phasenstatus In Orbit
Besitzer/Staat SPXS/US

Most Searched